Buies Creek, NC

12:20 PM EST on December 03, 2016 (GMT -0500)
Harnett County

Weather History for KHRJ - January, 2013

Change the Weather History Date:

Tuesday, January 15, 2013

  Actual Average Record
Temperature  
Mean Temperature 56 °F -  
Max Temperature 63 °F 48 °F 71 °F (2007)
Min Temperature 48 °F 27 °F 13 °F (1964)
Degree Days  
Heating Degree Days 10    
Growing Degree Days 6 (Base 50)    
Moisture  
Dew Point 50 °F    
Average Humidity 98    
Maximum Humidity 100    
Minimum Humidity 93    
Precipitation  
Precipitation 0.00 in - - ()
Sea Level Pressure  
Sea Level Pressure 30.16 in    
Wind  
Wind Speed 6 mph (NE)    
Max Wind Speed 12 mph    
Max Gust Speed 17 mph    
Visibility 6 miles    
Events Rain    
Averages and records for this station are not official NWS values.
T = Trace of Precipitation, MM = Missing Value Source: NWS Daily Summary

Daily Weather History Graph

Daily Weather History Graph

Search for Another Location

Airport or City:

Trip Planner

Search our weather history database for the weather conditions in past years. The results will help you decide how hot, cold, wet, or windy it might be!

Date:

Astronomy

Jan. 15, 2013 Rise Set
Actual Time 7:23 AM EST 5:25 PM EST
Civil Twilight 6:55 AM EST 5:53 PM EST
Nautical Twilight 6:24 AM EST 6:24 PM EST
Astronomical Twilight 5:53 AM EST 6:55 PM EST
Moon 9:39 AM EST (1/15) 10:01 PM EST (1/15)
Length of Visible Light 10h 58m
Length of Day
10h 02m
Waxing Crescent, 19% of the Moon is Illuminated
Jan 15
Waxing Crescent
Jan 18
First Quarter
Jan 26
Full
Feb 3
Last Quarter
Feb 10
New

Hourly Weather History & Observations

Time (EST) Temp. Dew Point Humidity Pressure Visibility Wind Dir Wind Speed Gust Speed Precip Events Conditions
12:15 AM 63.7 °F 61.7 °F 93% 30.13 in 10.0 mi South 4.6 mph - N/A   Clear
12:35 AM 63.1 °F 61.3 °F 94% 30.14 in 10.0 mi SSW 4.6 mph - N/A   Clear
12:55 AM 62.8 °F 60.8 °F 93% 30.14 in 10.0 mi SSW 3.5 mph - N/A   Clear
1:15 AM 61.5 °F 60.4 °F 96% 30.14 in 10.0 mi South 3.5 mph - N/A   Clear
1:35 AM 61.7 °F 60.8 °F 97% 30.14 in 10.0 mi Calm Calm - N/A   Scattered Clouds
1:55 AM 61.5 °F 60.8 °F 97% 30.14 in 10.0 mi SSE 3.5 mph - N/A   Clear
2:15 AM 61.2 °F 60.8 °F 99% 30.14 in 10.0 mi South 3.5 mph - N/A   Scattered Clouds
2:35 AM 60.6 °F 59.9 °F 97% 30.15 in 10.0 mi NNW 4.6 mph - N/A   Mostly Cloudy
3:15 AM 61.7 °F 60.8 °F 97% 30.15 in 10.0 mi North 6.9 mph - N/A   Overcast
3:35 AM 56.7 °F 54.7 °F 93% 30.16 in 10.0 mi North 10.4 mph - N/A   Overcast
3:55 AM 54.3 °F 52.7 °F 94% 30.15 in 10.0 mi North 8.1 mph 17.3 mph N/A   Overcast
4:15 AM 53.4 °F 52.0 °F 95% 30.16 in 10.0 mi North 8.1 mph - N/A   Overcast
4:35 AM 52.2 °F 51.3 °F 97% 30.17 in 10.0 mi North 8.1 mph - N/A   Overcast
4:55 AM 51.8 °F 51.1 °F 97% 30.15 in 7.0 mi NNE 6.9 mph - N/A Rain Rain
5:55 AM 50.9 °F 50.5 °F 99% 30.15 in 10.0 mi NE 8.1 mph - N/A   Overcast
6:15 AM 50.5 °F 50.4 °F 99% 30.15 in 10.0 mi NE 11.5 mph - N/A   Overcast
6:35 AM 50.0 °F 49.8 °F 99% 30.15 in 10.0 mi NE 6.9 mph - N/A   Overcast
7:15 AM 48.7 °F 48.4 °F 99% 30.16 in 10.0 mi ENE 9.2 mph - N/A   Overcast
7:35 AM 48.2 °F 47.5 °F 97% 30.17 in 7.0 mi ENE 9.2 mph - N/A   Overcast
7:55 AM 48.2 °F 47.7 °F 98% 30.18 in 7.0 mi NE 9.2 mph - N/A   Overcast
8:15 AM 48.4 °F 47.7 °F 97% 30.19 in 7.0 mi NE 4.6 mph - N/A   Overcast
8:35 AM 48.2 °F 47.7 °F 98% 30.21 in 7.0 mi NE 5.8 mph - N/A   Overcast
8:55 AM 48.4 °F 47.7 °F 97% 30.21 in 7.0 mi NE 6.9 mph - N/A   Overcast
9:15 AM 48.4 °F 47.5 °F 97% 30.22 in 10.0 mi NE 5.8 mph - N/A   Overcast
9:35 AM 49.1 °F 48.2 °F 97% 30.22 in 7.0 mi NE 5.8 mph - N/A   Overcast
9:55 AM 49.3 °F 48.2 °F 96% 30.22 in 7.0 mi North 4.6 mph - N/A   Overcast
10:15 AM 49.3 °F 48.2 °F 96% 30.22 in 7.0 mi NE 4.6 mph - N/A   Overcast
10:35 AM 49.8 °F 48.2 °F 94% 30.22 in 10.0 mi North 5.8 mph - N/A   Overcast
10:55 AM 50.0 °F 48.4 °F 94% 30.22 in 7.0 mi NE 3.5 mph - N/A   Overcast
11:15 AM 50.0 °F 48.6 °F 95% 30.21 in 7.0 mi NNE 4.6 mph - N/A   Overcast
11:35 AM 49.8 °F 48.4 °F 95% 30.21 in 5.0 mi North 8.1 mph - N/A   Overcast
11:55 AM 50.0 °F 48.6 °F 95% 30.20 in 5.0 mi NNE 4.6 mph - N/A   Overcast
12:15 PM 49.6 °F 48.6 °F 96% 30.19 in 4.0 mi NNE 8.1 mph - N/A   Overcast
12:35 PM 50.0 °F 48.7 °F 95% 30.19 in 5.0 mi North 4.6 mph - N/A   Overcast
12:55 PM 50.0 °F 48.6 °F 95% 30.18 in 5.0 mi NE 9.2 mph - N/A   Overcast
1:15 PM 49.1 °F 48.2 °F 97% 30.17 in 4.0 mi NNE 6.9 mph - N/A   Overcast
1:35 PM 49.1 °F 48.2 °F 97% 30.16 in 4.0 mi North 6.9 mph - N/A   Overcast
1:55 PM 49.5 °F 48.2 °F 95% 30.15 in 5.0 mi NE 9.2 mph - N/A   Overcast
2:35 PM 49.5 °F 48.4 °F 96% 30.15 in 5.0 mi NNE 5.8 mph - N/A   Overcast
2:55 PM 49.1 °F 48.2 °F 97% 30.16 in 5.0 mi NNE 5.8 mph - N/A   Overcast
3:15 PM 49.1 °F 48.4 °F 97% 30.16 in 4.0 mi NE 5.8 mph - N/A   Overcast
3:35 PM 49.1 °F 48.4 °F 97% 30.16 in 5.0 mi NE 9.2 mph - N/A   Overcast
3:55 PM 49.1 °F 48.6 °F 98% 30.16 in 4.0 mi ENE 8.1 mph - N/A   Overcast
4:15 PM 49.1 °F 48.6 °F 98% 30.16 in 4.0 mi NE 5.8 mph - N/A   Overcast
4:35 PM 49.3 °F 48.7 °F 98% 30.16 in 5.0 mi ENE 8.1 mph - N/A   Overcast
4:55 PM 49.1 °F 48.6 °F 98% 30.15 in 5.0 mi ENE 9.2 mph - N/A   Overcast
5:15 PM 48.6 °F 48.4 °F 99% 30.15 in 3.0 mi NE 8.1 mph - N/A   Overcast
5:35 PM 48.4 °F 48.4 °F 100% 30.16 in 3.0 mi NE 9.2 mph - N/A   Overcast
5:55 PM 48.6 °F 48.6 °F 100% 30.16 in 3.0 mi ENE 5.8 mph - N/A   Overcast
6:15 PM 48.6 °F 48.6 °F 100% 30.16 in 1.5 mi ENE 9.2 mph - N/A   Overcast
6:35 PM 48.4 °F 48.4 °F 100% 30.16 in 1.8 mi ENE 6.9 mph - N/A   Overcast
6:55 PM 48.6 °F 48.6 °F 100% 30.16 in 1.8 mi ENE 4.6 mph - N/A   Overcast
7:15 PM 48.4 °F 48.4 °F 100% 30.16 in 1.5 mi ENE 5.8 mph - N/A   Overcast
7:35 PM 48.6 °F 48.6 °F 100% 30.15 in 1.2 mi ENE 5.8 mph - N/A   Overcast
7:55 PM 48.6 °F 48.6 °F 100% 30.14 in 1.2 mi East 4.6 mph - N/A   Overcast
8:15 PM 48.6 °F 48.6 °F 100% 30.13 in 1.2 mi East 4.6 mph - N/A   Overcast
8:35 PM 48.9 °F 48.9 °F 100% 30.13 in 1.2 mi ENE 5.8 mph - N/A   Overcast
8:55 PM 49.1 °F 49.1 °F 100% 30.12 in 1.5 mi NNE 4.6 mph - N/A   Overcast
9:15 PM 48.6 °F 48.6 °F 100% 30.12 in 1.5 mi NE 5.8 mph - N/A   Overcast
9:35 PM 48.4 °F 48.4 °F 100% 30.11 in 1.2 mi NNE 3.5 mph - N/A   Overcast
9:55 PM 48.6 °F 48.6 °F 100% 30.09 in 1.5 mi ENE 3.5 mph - N/A   Overcast
10:15 PM 48.9 °F 48.9 °F 100% 30.09 in 1.8 mi ENE 4.6 mph - N/A   Overcast
10:35 PM 49.1 °F 49.1 °F 100% 30.09 in 1.5 mi ENE 3.5 mph - N/A   Overcast
10:55 PM 49.1 °F 49.1 °F 100% 30.10 in 1.2 mi NW 3.5 mph - N/A   Overcast
11:15 PM 48.6 °F 48.6 °F 100% 30.09 in 1.2 mi North 3.5 mph - N/A   Overcast
11:35 PM 48.7 °F 48.7 °F 100% 30.08 in 1.5 mi NE 3.5 mph - N/A   Overcast
11:55 PM 49.1 °F 49.1 °F 100% 30.07 in 1.5 mi East 4.6 mph - N/A   Overcast